Location: Alphen
(52.1351°N, 4.6549°E)
Time: 01:45:54
(UTC+00:00)

Cosmos 1603 - Pass Details

Date: 27 January 2021
Orbit: 829 x 861 km, 71.0° (Epoch: 26 February)

Event Time Altitude Azimuth Distance (km) Brightness Sun altitude
Rises 06:14:46 0° 196° (SSW) 3,365 6.8 -11.3°
Reaches altitude 10° 06:17:12 10° 192° (SSW) 2,438 6.2 -11.0°
Maximum altitude 06:22:42 60° 114° (ESE) 956 4.4 -10.2°
Drops below altitude 10° 06:28:16 10° 36° (NE) 2,473 6.4 -9.4°
Sets 06:30:45 0° 33° (NNE) 3,418 7.1 -9.0°
